Time,TemperatureF,DewpointF,PressureIn,WindDirection,WindDirectionDegrees,WindSpeedMPH,WindSpeedGustMPH,Humidity,HourlyPrecipIn,Conditions,Clouds,dailyrainin,SolarRadiationWatts/m^2,SoftwareType,DateUTC
2013-02-14 00:02:00,35.0,32.0,-100.00,NNE,17,3.0,9.0,89,0.00,,,0.11,0.000000,,2013-02-14 05:02:00,
2013-02-14 00:32:00,35.0,32.0,-100.00,NW,319,2.0,5.0,89,0.00,,,0.08,0.000000,,2013-02-14 05:32:00,
2013-02-14 00:42:00,35.0,32.0,-100.00,NW,319,2.0,5.0,89,0.00,,,0.08,0.000000,,2013-02-14 05:42:00,
2013-02-14 00:52:00,35.0,32.0,-100.00,NW,319,2.0,5.0,89,0.00,,,0.08,0.000000,,2013-02-14 05:52:00,
2013-02-14 01:02:00,35.0,32.0,-100.00,NW,319,2.0,5.0,89,0.00,,,0.08,0.000000,,2013-02-14 06:02:00,
2013-02-14 01:32:00,35.0,32.0,-100.00,NW,308,3.0,6.0,89,0.00,,,0.08,0.000000,,2013-02-14 06:32:00,
2013-02-14 01:42:00,35.0,32.0,-100.00,NW,308,3.0,6.0,89,0.00,,,0.08,0.000000,,2013-02-14 06:42:00,
2013-02-14 01:52:00,35.0,32.0,-100.00,NW,308,3.0,6.0,89,0.00,,,0.08,0.000000,,2013-02-14 06:52:00,
2013-02-14 02:01:00,35.0,32.0,-100.00,NW,308,3.0,6.0,89,0.00,,,0.08,0.000000,,2013-02-14 07:01:00,
2013-02-14 02:32:00,35.0,32.0,-100.00,NNW,346,4.0,8.0,88,0.00,,,0.07,0.000000,,2013-02-14 07:32:00,
2013-02-14 02:42:00,35.0,32.0,-100.00,NNW,346,4.0,8.0,88,0.00,,,0.07,0.000000,,2013-02-14 07:42:00,
2013-02-14 02:52:00,35.0,32.0,-100.00,NNW,346,4.0,8.0,88,0.00,,,0.07,0.000000,,2013-02-14 07:52:00,
2013-02-14 03:01:00,35.0,32.0,-100.00,NNW,346,4.0,8.0,88,0.00,,,0.07,0.000000,,2013-02-14 08:01:00,
2013-02-14 03:32:00,34.0,31.0,-100.00,North,359,3.0,10.0,90,0.00,,,0.07,0.000000,,2013-02-14 08:32:00,
2013-02-14 03:43:00,34.0,31.0,-100.00,North,359,3.0,10.0,90,0.00,,,0.07,0.000000,,2013-02-14 08:43:00,
2013-02-14 03:52:00,34.0,31.0,-100.00,North,359,3.0,10.0,90,0.00,,,0.07,0.000000,,2013-02-14 08:52:00,
2013-02-14 04:02:00,34.0,31.0,-100.00,North,359,3.0,10.0,90,0.00,,,0.07,0.000000,,2013-02-14 09:02:00,
2013-02-14 04:32:00,34.0,31.0,-100.00,North,1,2.0,7.0,90,0.00,,,0.07,0.000000,,2013-02-14 09:32:00,
2013-02-14 04:42:00,34.0,31.0,-100.00,North,1,2.0,7.0,90,0.00,,,0.07,0.000000,,2013-02-14 09:42:00,
2013-02-14 04:52:00,34.0,31.0,-100.00,North,1,2.0,7.0,90,0.00,,,0.07,0.000000,,2013-02-14 09:52:00,
2013-02-14 05:02:00,34.0,31.0,-100.00,North,1,2.0,7.0,90,0.00,,,0.07,0.000000,,2013-02-14 10:02:00,
2013-02-14 05:32:00,34.0,30.0,-100.00,North,351,3.0,8.0,85,0.00,,,0.07,0.000000,,2013-02-14 10:32:00,
2013-02-14 05:42:00,34.0,30.0,-100.00,North,351,3.0,8.0,85,0.00,,,0.07,0.000000,,2013-02-14 10:42:00,
2013-02-14 05:52:00,34.0,30.0,-100.00,North,351,3.0,8.0,85,0.00,,,0.07,0.000000,,2013-02-14 10:52:00,
2013-02-14 06:02:00,34.0,30.0,-100.00,North,351,3.0,8.0,85,0.00,,,0.07,0.000000,,2013-02-14 11:02:00,
2013-02-14 06:32:00,34.0,31.0,-100.00,North,4,3.0,7.0,87,0.00,,,0.07,0.000000,,2013-02-14 11:32:00,
2013-02-14 06:42:00,34.0,31.0,-100.00,North,4,3.0,7.0,87,0.00,,,0.07,0.000000,,2013-02-14 11:42:00,
2013-02-14 06:52:00,34.0,31.0,-100.00,North,4,3.0,7.0,87,0.00,,,0.07,0.000000,,2013-02-14 11:52:00,
2013-02-14 07:02:00,34.0,31.0,-100.00,North,4,3.0,7.0,87,0.00,,,0.07,0.000000,,2013-02-14 12:02:00,
2013-02-14 07:32:00,34.0,30.0,-100.00,North,5,3.0,8.0,86,0.00,,,0.06,0.000000,,2013-02-14 12:32:00,
2013-02-14 07:42:00,34.0,30.0,-100.00,North,5,3.0,8.0,86,0.00,,,0.06,0.000000,,2013-02-14 12:42:00,
2013-02-14 07:53:00,34.0,30.0,-100.00,North,5,3.0,8.0,86,0.00,,,0.06,0.000000,,2013-02-14 12:53:00,
2013-02-14 08:02:00,34.0,30.0,-100.00,North,5,3.0,8.0,86,0.00,,,0.06,0.000000,,2013-02-14 13:02:00,
2013-02-14 09:32:00,36.0,29.0,-100.00,NW,311,3.0,5.0,75,-99.99,,,0.03,120.000000,,2013-02-14 14:32:00,
2013-02-14 09:42:00,36.0,29.0,-100.00,NW,311,3.0,5.0,75,-99.99,,,0.03,120.000000,,2013-02-14 14:42:00,
2013-02-14 09:52:00,36.0,29.0,-100.00,NW,311,3.0,5.0,75,-99.99,,,0.03,120.000000,,2013-02-14 14:52:00,
2013-02-14 10:02:00,36.0,29.0,-100.00,NW,311,3.0,5.0,75,-99.99,,,0.03,120.000000,,2013-02-14 15:02:00,
2013-02-14 10:32:00,42.0,34.0,-100.00,West,265,3.0,8.0,72,0.00,,,0.02,406.000000,,2013-02-14 15:32:00,
2013-02-14 10:42:00,42.0,34.0,-100.00,West,265,3.0,8.0,72,0.00,,,0.02,406.000000,,2013-02-14 15:42:00,
2013-02-14 10:52:00,42.0,34.0,-100.00,West,265,3.0,8.0,72,0.00,,,0.02,406.000000,,2013-02-14 15:52:00,
2013-02-14 11:02:00,42.0,34.0,-100.00,West,265,3.0,8.0,72,0.00,,,0.02,406.000000,,2013-02-14 16:02:00,
2013-02-14 11:32:00,42.0,31.0,-100.00,NE,35,4.0,8.0,64,0.00,,,0.01,600.000000,,2013-02-14 16:32:00,
2013-02-14 11:42:00,42.0,31.0,-100.00,NE,35,4.0,8.0,64,0.00,,,0.01,600.000000,,2013-02-14 16:42:00,
2013-02-14 11:52:00,42.0,31.0,-100.00,NE,35,4.0,8.0,64,0.00,,,0.01,600.000000,,2013-02-14 16:52:00,
2013-02-14 12:01:00,42.0,31.0,-100.00,NE,35,4.0,8.0,64,0.00,,,0.01,600.000000,,2013-02-14 17:01:00,
2013-02-14 12:32:00,47.0,33.0,-100.00,SSE,155,6.0,9.0,57,0.00,,,0.01,753.000000,,2013-02-14 17:32:00,
2013-02-14 12:42:00,47.0,33.0,-100.00,SSE,155,6.0,9.0,57,0.00,,,0.01,753.000000,,2013-02-14 17:42:00,
2013-02-14 12:52:00,47.0,33.0,-100.00,SSE,155,6.0,9.0,57,0.00,,,0.01,753.000000,,2013-02-14 17:52:00,
2013-02-14 13:02:00,47.0,33.0,-100.00,SSE,155,6.0,9.0,57,0.00,,,0.01,753.000000,,2013-02-14 18:02:00,
2013-02-14 13:32:00,47.0,33.0,-100.00,West,275,5.0,11.0,57,0.00,,,0.01,692.000000,,2013-02-14 18:32:00,
2013-02-14 13:42:00,47.0,33.0,-100.00,West,275,5.0,11.0,57,0.00,,,0.01,692.000000,,2013-02-14 18:42:00,
2013-02-14 13:52:00,47.0,33.0,-100.00,West,275,5.0,11.0,57,0.00,,,0.01,692.000000,,2013-02-14 18:52:00,
2013-02-14 14:02:00,47.0,33.0,-100.00,West,275,5.0,11.0,57,0.00,,,0.01,692.000000,,2013-02-14 19:02:00,
2013-02-14 14:32:00,49.0,32.0,-100.00,NNW,329,5.0,9.0,51,0.00,,,0.01,764.000000,,2013-02-14 19:32:00,
2013-02-14 14:42:00,49.0,32.0,-100.00,NNW,329,5.0,9.0,51,0.00,,,0.01,764.000000,,2013-02-14 19:42:00,
2013-02-14 14:52:00,49.0,32.0,-100.00,NNW,329,5.0,9.0,51,0.00,,,0.01,764.000000,,2013-02-14 19:52:00,
2013-02-14 15:01:00,49.0,32.0,-100.00,NNW,329,5.0,9.0,51,0.00,,,0.01,764.000000,,2013-02-14 20:01:00,
2013-02-14 15:32:00,51.0,33.0,-100.00,WSW,252,5.0,14.0,50,0.00,,,0.01,666.000000,,2013-02-14 20:32:00,
2013-02-14 15:42:00,51.0,33.0,-100.00,WSW,252,5.0,14.0,50,0.00,,,0.01,666.000000,,2013-02-14 20:42:00,
2013-02-14 15:52:00,51.0,33.0,-100.00,WSW,252,5.0,14.0,50,0.00,,,0.01,666.000000,,2013-02-14 20:52:00,
2013-02-14 16:02:00,51.0,33.0,-100.00,WSW,252,5.0,14.0,50,0.00,,,0.01,666.000000,,2013-02-14 21:02:00,
2013-02-14 16:32:00,52.0,33.0,-100.00,SSW,212,7.0,12.0,48,0.00,,,0.00,506.000000,,2013-02-14 21:32:00,
2013-02-14 16:42:00,52.0,33.0,-100.00,SSW,212,7.0,12.0,48,0.00,,,0.00,506.000000,,2013-02-14 21:42:00,
2013-02-14 16:52:00,52.0,33.0,-100.00,SSW,212,7.0,12.0,48,0.00,,,0.00,506.000000,,2013-02-14 21:52:00,
2013-02-14 17:02:00,52.0,33.0,-100.00,SSW,212,7.0,12.0,48,0.00,,,0.00,506.000000,,2013-02-14 22:02:00,
2013-02-14 17:32:00,51.0,32.0,-100.00,SSW,205,6.0,15.0,48,0.00,,,0.00,309.000000,,2013-02-14 22:32:00,
2013-02-14 17:42:00,51.0,32.0,-100.00,SSW,205,6.0,15.0,48,0.00,,,0.00,309.000000,,2013-02-14 22:42:00,
2013-02-14 17:52:00,51.0,32.0,-100.00,SSW,205,6.0,15.0,48,0.00,,,0.00,309.000000,,2013-02-14 22:52:00,
2013-02-14 18:01:00,51.0,32.0,-100.00,SSW,205,6.0,15.0,48,0.00,,,0.00,309.000000,,2013-02-14 23:01:00,
2013-02-14 18:32:00,48.0,31.0,-100.00,SSW,208,2.0,10.0,51,0.00,,,0.00,103.000000,,2013-02-14 23:32:00,
2013-02-14 18:42:00,48.0,31.0,-100.00,SSW,208,2.0,10.0,51,0.00,,,0.00,103.000000,,2013-02-14 23:42:00,
2013-02-14 18:52:00,48.0,31.0,-100.00,SSW,208,2.0,10.0,51,0.00,,,0.00,103.000000,,2013-02-14 23:52:00,
2013-02-14 19:01:00,48.0,31.0,-100.00,SSW,208,2.0,10.0,51,0.00,,,0.00,103.000000,,2013-02-15 00:01:00,
2013-02-14 19:32:00,38.0,33.0,-100.00,NNW,331,2.0,3.0,82,0.00,,,0.00,3.000000,,2013-02-15 00:32:00,
2013-02-14 20:32:00,36.0,32.0,-100.00,West,280,2.0,6.0,86,-99.99,,,-99.99,0.000000,,2013-02-15 01:32:00,
2013-02-14 20:42:00,36.0,32.0,-100.00,West,280,2.0,6.0,86,-99.99,,,-99.99,0.000000,,2013-02-15 01:42:00,
2013-02-14 20:52:00,36.0,32.0,-100.00,West,280,2.0,6.0,86,-99.99,,,-99.99,0.000000,,2013-02-15 01:52:00,
2013-02-14 21:01:00,36.0,32.0,-100.00,West,280,2.0,6.0,86,-99.99,,,-99.99,0.000000,,2013-02-15 02:01:00,
2013-02-14 21:32:00,44.0,35.0,-100.00,WSW,241,5.0,7.0,71,0.00,,,0.00,0.000000,,2013-02-15 02:32:00,
2013-02-14 21:42:00,44.0,35.0,-100.00,WSW,241,5.0,7.0,71,0.00,,,0.00,0.000000,,2013-02-15 02:42:00,
2013-02-14 21:52:00,44.0,35.0,-100.00,WSW,241,5.0,7.0,71,0.00,,,0.00,0.000000,,2013-02-15 02:52:00,
2013-02-14 22:02:00,44.0,35.0,-100.00,WSW,241,5.0,7.0,71,0.00,,,0.00,0.000000,,2013-02-15 03:02:00,
2013-02-14 22:32:00,44.0,31.0,-100.00,WSW,254,4.0,8.0,60,0.00,,,0.00,0.000000,,2013-02-15 03:32:00,
2013-02-14 22:42:00,44.0,31.0,-100.00,WSW,254,4.0,8.0,60,0.00,,,0.00,0.000000,,2013-02-15 03:42:00,
2013-02-14 22:52:00,44.0,31.0,-100.00,WSW,254,4.0,8.0,60,0.00,,,0.00,0.000000,,2013-02-15 03:52:00,
2013-02-14 23:32:00,42.0,32.0,-100.00,West,264,5.0,7.0,67,-99.99,,,-99.99,0.000000,,2013-02-15 04:32:00,
2013-02-14 23:42:00,42.0,32.0,-100.00,West,264,5.0,7.0,67,-99.99,,,-99.99,0.000000,,2013-02-15 04:42:00,
2013-02-14 23:52:00,42.0,32.0,-100.00,West,264,5.0,7.0,67,-99.99,,,-99.99,0.000000,,2013-02-15 04:52:00,